Franklin, NC

6:47 AM EDT on June 25, 2017 (GMT -0400)
Franklin

Weather History for K1A5 - December, 2013

Change the Weather History Date:

Tuesday, December 3, 2013

  Actual Average (KTOC) Record (KTOC)
Temperature  
Mean Temperature 48 °F -  
Max Temperature 54 °F 56 °F 69 °F (2014)
Min Temperature 41 °F 36 °F 35 °F (2015)
Degree Days  
Heating Degree Days 18    
Moisture  
Dew Point 45 °F    
Average Humidity 92    
Maximum Humidity 98    
Minimum Humidity 81    
Precipitation  
Precipitation 0.01 in - - ()
Sea Level Pressure  
Sea Level Pressure 29.90 in    
Wind  
Wind Speed 0 mph (ESE)    
Max Wind Speed 6 mph    
Max Gust Speed -    
Visibility 7 miles    
Events Rain    
Averages and records for this station are not official NWS values.
T = Trace of Precipitation, MM = Missing Value Source: NWS Daily Summary

Daily Weather History Graph

Daily Weather History Graph

Search for Another Location

Airport or City:

Trip Planner

Search our weather history database for the weather conditions in past years. The results will help you decide how hot, cold, wet, or windy it might be!

Date:

Astronomy

Dec. 03, 2013 Rise Set
Actual Time 7:25 AM EST 5:21 PM EST
Civil Twilight 6:57 AM EST 5:49 PM EST
Nautical Twilight 6:26 AM EST 6:20 PM EST
Astronomical Twilight 5:55 AM EST 6:51 PM EST
Moon 7:54 AM EST (12/3) 6:22 PM EST (12/3)
Length of Visible Light 10h 51m
Length of Day
9h 55m
New Moon, 1% of the Moon is Illuminated
Dec 3
New Moon
Dec 9
First Quarter
Dec 17
Full
Dec 25
Last Quarter
Jan 1
New

Hourly Weather History & Observations

Time (EST) Temp. Dew Point Humidity Pressure Visibility Wind Dir Wind Speed Gust Speed Precip Events Conditions
12:15 AM 42.4 °F 40.1 °F 91% 29.88 in 10.0 mi Calm Calm - N/A Rain Light Rain
12:35 AM 42.4 °F 40.3 °F 92% 29.88 in 10.0 mi Calm Calm - N/A Rain Light Rain
12:55 AM 42.1 °F 40.6 °F 95% 29.87 in 7.0 mi Calm Calm - N/A Rain Rain
1:15 AM 42.1 °F 41.0 °F 96% 29.88 in 7.0 mi Calm Calm - N/A   Light Drizzle
1:35 AM 42.1 °F 41.0 °F 96% 29.87 in 5.0 mi Calm Calm - N/A Rain Rain
1:55 AM 41.9 °F 41.0 °F 97% 29.87 in 5.0 mi Calm Calm - N/A   Overcast
2:15 AM 41.2 °F 40.3 °F 97% 29.87 in 4.0 mi Calm Calm - N/A   Overcast
2:35 AM 41.4 °F 40.5 °F 97% 29.87 in 4.0 mi Calm Calm - N/A   Drizzle
2:55 AM 41.5 °F 40.8 °F 97% 29.87 in 5.0 mi Calm Calm - N/A   Overcast
3:15 AM 41.5 °F 40.8 °F 97% 29.87 in 4.0 mi Calm Calm - N/A Rain Rain
3:35 AM 41.5 °F 41.0 °F 98% 29.87 in 3.0 mi Calm Calm - N/A Rain Rain
3:55 AM 41.9 °F 41.0 °F 97% 29.88 in 4.0 mi Calm Calm - N/A Rain Rain
4:15 AM 41.9 °F 41.0 °F 97% 29.87 in 4.0 mi Calm Calm - N/A   Overcast
4:35 AM 41.9 °F 41.2 °F 97% 29.88 in 5.0 mi Calm Calm - N/A   Overcast
4:55 AM 41.9 °F 41.2 °F 97% 29.88 in 4.0 mi Calm Calm - N/A   Overcast
5:15 AM 41.9 °F 41.2 °F 97% 29.88 in 3.0 mi Calm Calm - N/A Rain Light Rain
5:35 AM 41.9 °F 41.0 °F 97% 29.89 in 4.0 mi Calm Calm - N/A   Overcast
5:55 AM 41.9 °F 41.2 °F 97% 29.89 in 4.0 mi Calm Calm - N/A   Overcast
6:15 AM 42.1 °F 41.2 °F 97% 29.89 in 4.0 mi Calm Calm - N/A   Overcast
6:35 AM 41.9 °F 41.0 °F 97% 29.89 in 4.0 mi Calm Calm - N/A   Overcast
6:55 AM 41.9 °F 41.0 °F 97% 29.89 in 5.0 mi Calm Calm - N/A   Overcast
7:15 AM 41.9 °F 41.0 °F 97% 29.89 in 3.0 mi Calm Calm - N/A   Overcast
7:35 AM 41.9 °F 41.0 °F 97% 29.90 in 3.0 mi Calm Calm - N/A   Overcast
7:55 AM 41.9 °F 41.0 °F 97% 29.89 in 1.8 mi Calm Calm - N/A   Overcast
8:15 AM 41.9 °F 41.0 °F 97% 29.91 in 2.5 mi Calm Calm - N/A   Overcast
8:35 AM 42.4 °F 41.5 °F 97% 29.91 in 2.0 mi Calm Calm - N/A   Overcast
8:55 AM 43.0 °F 42.1 °F 97% 29.92 in 3.0 mi Calm Calm - N/A   Overcast
9:15 AM 43.9 °F 43.0 °F 97% 29.92 in 2.5 mi Calm Calm - N/A   Overcast
9:35 AM 44.8 °F 43.9 °F 97% 29.94 in 4.0 mi Calm Calm - N/A   Overcast
9:55 AM 46.0 °F 45.5 °F 98% 29.94 in 3.0 mi Calm Calm - N/A   Overcast
10:15 AM 47.1 °F 46.6 °F 98% 29.94 in 4.0 mi Calm Calm - N/A   Overcast
10:35 AM 48.4 °F 47.7 °F 97% 29.94 in 2.0 mi Calm Calm - N/A   Overcast
10:55 AM 49.6 °F 48.2 °F 95% 29.94 in 4.0 mi Calm Calm - N/A   Overcast
11:15 AM 50.4 °F 48.0 °F 92% 29.94 in 5.0 mi Calm Calm - N/A   Overcast
11:35 AM 50.9 °F 46.9 °F 86% 29.93 in 10.0 mi Calm Calm - N/A   Overcast
11:55 AM 51.1 °F 46.9 °F 86% 29.92 in 10.0 mi Calm Calm - N/A   Overcast
12:15 PM 51.8 °F 47.3 °F 85% 29.91 in 10.0 mi Calm Calm - N/A   Overcast
12:35 PM 52.3 °F 47.5 °F 84% 29.90 in 10.0 mi ESE 3.5 mph - N/A   Overcast
12:55 PM 53.1 °F 47.5 °F 81% 29.89 in 10.0 mi East 3.5 mph - N/A   Overcast
1:15 PM 53.1 °F 47.5 °F 81% 29.89 in 10.0 mi Calm Calm - N/A   Overcast
1:35 PM 52.7 °F 47.7 °F 83% 29.89 in 10.0 mi Calm Calm - 0.01 in   Overcast
1:55 PM 53.1 °F 47.3 °F 81% 29.88 in 10.0 mi South 3.5 mph - 0.01 in   Overcast
2:15 PM 53.6 °F 48.2 °F 82% 29.88 in 10.0 mi SSE 3.5 mph - N/A   Overcast
2:35 PM 53.1 °F 48.2 °F 84% 29.88 in 10.0 mi South 5.8 mph - N/A   Overcast
2:55 PM 53.6 °F 48.2 °F 82% 29.88 in 10.0 mi SE 5.8 mph - N/A   Overcast
3:15 PM 53.6 °F 48.4 °F 82% 29.88 in 10.0 mi SSE 3.5 mph - N/A   Overcast
3:35 PM 54.0 °F 48.6 °F 82% 29.88 in 10.0 mi Calm Calm - N/A   Overcast
3:55 PM 54.0 °F 48.6 °F 82% 29.88 in 10.0 mi Calm Calm - N/A   Overcast
4:15 PM 53.8 °F 48.4 °F 82% 29.89 in 10.0 mi Calm Calm - N/A   Overcast
4:35 PM 53.8 °F 48.4 °F 82% 29.89 in 10.0 mi Calm Calm - N/A   Mostly Cloudy
4:55 PM 53.2 °F 48.4 °F 84% 29.88 in 10.0 mi Calm Calm - N/A   Mostly Cloudy
5:15 PM 52.9 °F 48.4 °F 85% 29.89 in 10.0 mi Calm Calm - N/A   Overcast
5:35 PM 52.0 °F 48.2 °F 87% 29.89 in 10.0 mi Calm Calm - N/A   Overcast
5:55 PM 52.2 °F 48.2 °F 86% 29.90 in 10.0 mi Calm Calm - N/A   Overcast
6:15 PM 51.8 °F 48.0 °F 87% 29.90 in 10.0 mi Calm Calm - N/A   Mostly Cloudy
6:35 PM 51.3 °F 48.0 °F 89% 29.91 in 10.0 mi Calm Calm - N/A   Overcast
6:55 PM 50.9 °F 47.8 °F 89% 29.91 in 10.0 mi Calm Calm - N/A   Overcast
7:15 PM 50.9 °F 48.0 °F 90% 29.91 in 10.0 mi Calm Calm - N/A   Overcast
7:35 PM 50.9 °F 48.0 °F 90% 29.92 in 10.0 mi East 3.5 mph - N/A   Overcast
7:55 PM 50.5 °F 47.8 °F 90% 29.93 in 10.0 mi East 3.5 mph - N/A   Overcast
8:15 PM 51.3 °F 47.8 °F 88% 29.93 in 10.0 mi Calm Calm - N/A   Overcast
8:35 PM 51.3 °F 47.7 °F 87% 29.92 in 10.0 mi ENE 4.6 mph - N/A   Overcast
8:55 PM 50.2 °F 47.7 °F 91% 29.92 in 10.0 mi East 3.5 mph - N/A   Overcast
9:15 PM 50.4 °F 47.8 °F 91% 29.92 in 10.0 mi ENE 3.5 mph - N/A   Overcast
9:35 PM 50.0 °F 47.7 °F 92% 29.92 in 10.0 mi Calm Calm - N/A   Overcast
9:55 PM 48.4 °F 47.1 °F 95% 29.93 in 10.0 mi Calm Calm - N/A   Overcast
10:15 PM 48.2 °F 46.9 °F 95% 29.94 in 10.0 mi Calm Calm - N/A   Overcast
10:35 PM 48.4 °F 47.7 °F 97% 29.95 in 10.0 mi Calm Calm - N/A   Overcast
10:55 PM 48.0 °F 47.3 °F 97% 29.95 in 10.0 mi Calm Calm - N/A   Overcast
11:15 PM 48.0 °F 47.5 °F 98% 29.95 in 10.0 mi Calm Calm - N/A   Overcast
11:35 PM 48.2 °F 47.3 °F 97% 29.95 in 10.0 mi Calm Calm - N/A   Overcast
11:55 PM 47.8 °F 47.3 °F 98% 29.96 in 10.0 mi Calm Calm - N/A   Overcast